Location: Quebec
(46.8000°N, 71.2500°W)
Time: 08:49:29
(UTC-05:00)

N. Korean satellite - Pass Details

Date: 14 October 2017
Orbit: 461 x 513 km, 97.2° (Epoch: 11 December)

Event Time Altitude Azimuth Distance (km) Brightness Sun altitude
Rises 19:26:26 0° 194° (SSW) 2,543 10.3 -15.7°
Reaches altitude 10° 19:28:46 10° 208° (SSW) 1,658 9.6 -16.1°
Maximum altitude 19:31:44 25° 265° (W) 1,015 9.1 -16.6°
Drops below altitude 10° 19:34:41 10° 322° (NW) 1,647 9.9 -17.1°
Sets 19:37:01 0° 336° (NNW) 2,522 10.6 -17.5°
